Location: Newark
(49.8969°N, 3.3422°E)
Time: 20:52:41
(UTC+00:00)

A-11 Canister half - Pass Details

Date: 01 February 2020
Orbit: 1517 x 1683 km, 47.2° (Epoch: 22 February)

Event Time Altitude Azimuth Distance (km) Brightness Sun altitude
Rises 21:41:54 0° 230° (SW) 4,785 11.7 -47.0°
Enters shadow 21:44:47 - 226° (SW) 3,878 11.1 -47.4°
Reaches altitude 10° 21:45:06 10° 226° (SW) 3,779 - -47.4°
Maximum altitude 21:54:15 54° 153° (SSE) 1,831 - -48.5°
Drops below altitude 10° 22:03:11 10° 80° (E) 3,692 - -49.6°
Sets 22:06:16 0° 76° (ENE) 4,668 - -50.0°
